Flag for U.S.A. Weather past 2 weeks in Post Falls, Idaho, U.S.A.

Now
48 °F

Clear.


Feels Like: 48 °F
Forecast: 36 / 61 °F
Wind: No wind

Location: Coeur d'Alene Weather Reporting System

Current Time: Oct 2, 2014 at 1:27:31 AM

Latest Report: Oct 2, 2014 at 12:55 AM


Visibility: 10 mi

Pressure: 30.04 "Hg

Humidity: 54%

Dew point: 32 °F

Location of Post FallsLocation

Historic Weather in Post Falls — Graph

°F

Post Falls temperature yesterday

Maximum temperature yesterday: 61 °F (at 2:15 PM)
Minimum temperature yesterday: 39 °F (at 12:35 AM)
Average temperature yesterday: 50 °F

Past Weeks' High & Low Weather Summary

 TemperatureHumidityPressure
High88 °F (Sep 21, 2:55 PM)100% (Sep 20, 5:15 AM)30.20 "Hg (Sep 20, 5:15 AM)
Low39 °F (Sep 30, 10:55 PM)11% (Sep 24, 10:35 PM)29.65 "Hg (Sep 18, 1:55 AM)
Average61 °F59%29.94 "Hg
* Reported Sep 17 12:15 AM — Oct 2 12:35 AM, Post Falls, Weather by CustomWeather, © 2014

Note: Actual official high and low records may vary slightly from our data, if they occured in-between our weather recording intervals... More about our weather records

Advertising

Post Falls weather history for previous 24 hours

 ConditionsComfort  
Time TempWeatherWind HumidityBarometerVisibility
12:35 AM
Oct 2
50 °FClear.No wind58%30.03 "Hg10 mi
12:15 AM52 °FClear.6 mph54%30.03 "Hg10 mi
11:55 PM
Oct 1
52 °FClear.3 mph54%30.02 "Hg10 mi
11:35 PM52 °FClear.8 mph58%30.01 "Hg10 mi
11:15 PM54 °FClear.9 mph54%30.01 "Hg10 mi
10:55 PM54 °FClear.13 mph54%30.01 "Hg10 mi
10:35 PM54 °FClear.9 mph54%30.02 "Hg10 mi
10:15 PM52 °FClear.7 mph54%30.03 "Hg10 mi
9:55 PM54 °FClear.5 mph51%30.03 "Hg10 mi
9:35 PM54 °FPassing clouds.7 mph51%30.02 "Hg10 mi
9:15 PM54 °FPassing clouds.6 mph51%30.02 "Hg10 mi
8:55 PM54 °FClear.10 mph51%30.03 "Hg10 mi
8:35 PM54 °FPassing clouds.10 mph51%30.03 "Hg10 mi
8:15 PM54 °FPassing clouds.12 mph51%30.03 "Hg10 mi
7:55 PM54 °FPassing clouds.9 mph51%30.03 "Hg10 mi
7:35 PM54 °FPassing clouds.9 mph51%30.03 "Hg10 mi
7:15 PM54 °FScattered clouds.10 mph51%30.03 "Hg10 mi
6:55 PM54 °FPartly sunny.12 mph51%30.03 "Hg10 mi
6:35 PM55 °FScattered clouds.10 mph47%30.03 "Hg10 mi
6:15 PM55 °FScattered clouds.12 mph47%30.04 "Hg10 mi
5:55 PM57 °FPartly sunny.10 mph44%30.03 "Hg10 mi
5:35 PM57 °FPartly sunny.14 mph44%30.03 "Hg10 mi
5:15 PM59 °FOvercast.13 mph42%30.04 "Hg10 mi
4:55 PM59 °FOvercast.18 mph42%30.04 "Hg10 mi
4:35 PM59 °FOvercast.18 mph39%30.04 "Hg10 mi
4:15 PM61 °FPartly sunny.16 mph36%30.05 "Hg10 mi
3:55 PM61 °FBroken clouds.15 mph39%30.05 "Hg10 mi
3:35 PM61 °FPartly sunny.15 mph42%30.05 "Hg10 mi
3:15 PM61 °FPartly sunny.12 mph42%30.06 "Hg10 mi
2:55 PM61 °FPartly sunny.16 mph45%30.06 "Hg10 mi
2:35 PM59 °FPartly sunny.14 mph45%30.07 "Hg10 mi
2:15 PM61 °FPartly sunny.14 mph45%30.08 "Hg10 mi
1:55 PM59 °FMore clouds than sun.14 mph48%30.08 "Hg10 mi
1:35 PM57 °FMore clouds than sun.8 mph51%30.09 "Hg10 mi
1:15 PM57 °FPartly sunny.7 mph51%30.09 "Hg10 mi
12:55 PM57 °FPartly sunny.9 mph51%30.10 "Hg10 mi
12:35 PM57 °FScattered clouds.12 mph59%30.10 "Hg10 mi
12:15 PM55 °FPassing clouds.8 mph59%30.11 "Hg10 mi
11:55 AM55 °FPassing clouds.13 mph59%30.11 "Hg10 mi
11:35 AM54 °FPassing clouds.13 mph67%30.12 "Hg10 mi
10:55 AM52 °FSunny.10 mph67%30.12 "Hg10 mi
10:35 AM50 °FPassing clouds.9 mph71%30.13 "Hg10 mi
10:15 AM50 °FScattered clouds.10 mph71%30.13 "Hg10 mi
9:55 AM48 °FSunny.13 mph76%30.12 "Hg10 mi
9:35 AM48 °FPassing clouds.14 mph76%30.12 "Hg10 mi
9:15 AM46 °FPartly sunny.15 mph82%30.12 "Hg10 mi
8:55 AM46 °FScattered clouds.9 mph76%30.12 "Hg10 mi
8:35 AM45 °FScattered clouds.10 mph81%30.12 "Hg10 mi
8:15 AM45 °FPassing clouds.10 mph81%30.11 "Hg10 mi
7:55 AM45 °FSunny.7 mph81%30.11 "Hg10 mi
7:35 AM43 °FClear.8 mph87%30.11 "Hg10 mi
7:15 AM43 °FPassing clouds.7 mph87%30.10 "Hg10 mi
6:55 AM43 °FPassing clouds.9 mph81%30.09 "Hg10 mi
6:35 AM43 °FPassing clouds.9 mph87%30.09 "Hg10 mi
6:15 AM43 °FPassing clouds.6 mph87%30.09 "Hg10 mi
5:55 AM43 °FPassing clouds.7 mph87%30.08 "Hg10 mi
5:35 AM43 °FPassing clouds.7 mph87%30.07 "Hg10 mi
4:55 AM43 °FClear.8 mph87%30.06 "Hg10 mi
4:35 AM43 °FClear.10 mph87%30.06 "Hg10 mi
4:15 AM43 °FClear.9 mph87%30.05 "Hg10 mi
3:55 AM41 °FClear.7 mph93%30.04 "Hg10 mi
3:35 AM41 °FClear.6 mph87%30.04 "Hg10 mi
3:15 AM43 °FClear.7 mph87%30.04 "Hg10 mi
2:55 AM41 °FClear.8 mph87%30.03 "Hg10 mi
2:35 AM45 °FClear.5 mph87%30.03 "Hg10 mi
2:15 AM45 °FClear.6 mph81%30.03 "Hg10 mi
1:55 AM43 °FClear.8 mph87%30.02 "Hg10 mi
1:35 AM39 °FClear.6 mph93%30.02 "Hg10 mi
1:15 AM39 °FClear.5 mph93%30.02 "Hg10 mi
Weather by CustomWeather, © 2014

See weather overviewHow to use our weather pages